Flight Track Log - Related Links

Times and Time Zones

All times are in EDT time to prevent confusion due to time zone crossing. See the UAL1528 flight status page for this flight to view local times or setup timezone preferences in your user account.

Time Position Orientation Groundspeed Altitude Reporting Facility
EDT Latitude Longitude Course Direction KTS MPH feet Rate Location/Type
Wed 10:43:58 AM 41.9333 -87.9000 85° East 169 194 2,300  Level Chicago TRACON
Wed 10:44:58 AM 41.9000 -87.8667 143° Southeast 190 219 4,700 1,400 Climbing Chicago TRACON
Wed 10:45:58 AM 41.8500 -87.8000 135° Southeast 272 313 5,100 1,684 Climbing Chicago TRACON
Wed 10:46:52 AM 41.8167 -87.7167 118° Southeast 289 333 7,900 3,125 Climbing Chicago TRACON
Wed 10:48:22 AM 41.8186 -87.5644 89° East 299 344 12,600 3,000 Climbing Chicago Center
Wed 10:49:00 AM 41.9431 -86.8110 85° East  Level FlightAware Approximate
Wed 10:49:24 AM 41.8508 -87.4411 71° East 322 371 15,500  Level Chicago Center
Wed 10:50:26 AM 41.8853 -87.3042 71° East 387 445 17,200 1,854 Climbing Chicago Center
Wed 10:51:27 AM 41.9194 -87.1667 71° East 414 476 19,300 2,098 Climbing Chicago Center
Wed 10:52:29 AM 41.9472 -87.0069 77° East 439 505 21,500 1,984 Climbing Chicago Center
Wed 10:53:31 AM 41.9344 -86.8317 96° East 477 549 23,400 1,839 Climbing Chicago Center
Wed 10:54:33 AM 41.9117 -86.6481 99° East 498 573 25,300 1,887 Climbing Chicago Center
Wed 10:55:35 AM 41.8831 -86.4206 100° East 513 590 27,300 1,756 Climbing Chicago Center
Wed 10:56:36 AM 41.8592 -86.2281 99° East 523 602 28,900 829 Climbing Chicago Center
Wed 10:57:38 AM 41.8331 -86.0336 100° East 528 608 29,000 48 Climbing Chicago Center
Wed 10:58:40 AM 41.8083 -85.8381 100° East 531 611 29,000 145 Level Chicago Center
Wed 10:59:42 AM 41.7831 -85.6419 100° East 533 613 29,300 1,065 Climbing Chicago Center
Wed 11:00:44 AM 41.7561 -85.4386 100° East 537 618 31,200 1,756 Climbing Chicago Center
Wed 11:01:45 AM 41.7289 -85.2436 101° East 528 608 32,900 1,610 Climbing Chicago Center
Wed 11:02:47 AM 41.7033 -85.0492 100° East 526 605 34,500 1,355 Climbing Chicago Center
Wed 11:03:49 AM 41.6786 -84.8569 100° East 526 605 35,700 1,500 Climbing Chicago Center
Wed 11:04:51 AM 41.6608 -84.6314 96° East 500 575 37,600 1,426 Climbing Chicago Center
Wed 11:05:30 AM 41.6561 -84.5211 93° East 502 578 38,100 480 Climbing Cleveland Center
Wed 11:06:31 AM 41.6483 -84.3342 93° East 502 578 38,400 390 Climbing Cleveland Center
Wed 11:07:33 AM 41.6394 -84.1578 94° East 516 594 38,900 290 Climbing Cleveland Center
Wed 11:08:35 AM 41.6228 -83.9322 96° East 516 594 39,000 48 Climbing Cleveland Center
Wed 11:09:37 AM 41.5464 -83.7647 121° Southeast 531 611 39,000  Level Cleveland Center
Wed 11:10:38 AM 41.4600 -83.6022 125° Southeast 534 615 39,000  Level Cleveland Center
Wed 11:11:40 AM 41.3728 -83.4433 126° Southeast 535 616 39,000  Level Cleveland Center
Wed 11:12:42 AM 41.2861 -83.2828 126° Southeast 536 617 39,000  Level Cleveland Center
Wed 11:13:44 AM 41.2000 -83.1239 126° Southeast 536 617 39,000  Level Cleveland Center
Wed 11:13:56 AM 41.1650 -83.0614 127° Southeast 536 617 39,000  Level Cleveland Center
Wed 11:14:58 AM 41.0881 -82.9208 126° Southeast 536 617 39,000  Level Cleveland Center
Wed 11:15:59 AM 41.0006 -82.7628 126° Southeast 536 617 39,000  Level Cleveland Center
Wed 11:17:01 AM 40.8942 -82.5725 126° Southeast 536 617 39,000  Level Cleveland Center
Wed 11:18:03 AM 40.8056 -82.4142 126° Southeast 535 616 39,000  Level Cleveland Center
Wed 11:19:04 AM 40.7172 -82.2556 126° Southeast 535 616 39,000  Level Cleveland Center
Wed 11:20:06 AM 40.6289 -82.0978 126° Southeast 535 616 39,000  Level Cleveland Center
Wed 11:21:07 AM 40.5392 -81.9403 127° Southeast 536 617 39,000  Level Cleveland Center
Wed 11:22:09 AM 40.4617 -81.7733 121° Southeast 536 617 39,000  Level Cleveland Center
Wed 11:23:11 AM 40.3850 -81.6072 121° Southeast 535 616 39,000  Level Cleveland Center
Wed 11:24:12 AM 40.2975 -81.4233 122° Southeast 535 616 39,000 -98 Level Cleveland Center
Wed 11:25:14 AM 40.2211 -81.2586 121° Southeast 535 616 38,800 -488 Descending Cleveland Center
Wed 11:26:15 AM 40.1456 -81.0964 121° Southeast 533 613 38,000 -390 Descending Cleveland Center
Wed 11:27:17 AM 40.0694 -80.9336 121° Southeast 531 611 38,000  Level Cleveland Center
Wed 11:28:18 AM 39.9928 -80.7722 122° Southeast 531 611 38,000  Level Cleveland Center
Wed 11:29:20 AM 39.9003 -80.5761 122° Southeast 531 611 38,000  Level Cleveland Center
Wed 11:30:21 AM 39.8231 -80.4158 122° Southeast 531 611 38,000  Level Cleveland Center
Wed 11:31:23 AM 39.7456 -80.2550 122° Southeast 527 606 38,000  Level Cleveland Center
Wed 11:32:24 AM 39.6675 -80.0944 122° Southeast 527 606 38,000 -619 Level Cleveland Center
Wed 11:33:00 AM 39.6189 -79.9883 121° Southeast 532 612 37,000 -2,563 Descending Washington Center
Wed 11:34:00 AM 39.5469 -79.8411 122° Southeast 539 620 33,900 -2,926 Descending Washington Center
Wed 11:35:01 AM 39.4675 -79.6753 122° Southeast 539 620 31,100 -1,438 Descending Washington Center
Wed 11:36:01 AM 39.3853 -79.5122 123° Southeast 539 620 31,000 -1,322 Descending Washington Center
Wed 11:36:59 AM 39.3031 -79.3467 123° Southeast 539 620 28,500 -1,664 Descending Washington Center
Wed 11:38:00 AM 39.2414 -79.1772 115° Southeast 536 617 27,700 -1,525 Descending Washington Center
Wed 11:39:01 AM 39.2275 -79.0133 96° East 492 566 25,400 -2,182 Descending Washington Center
Wed 11:40:01 AM 39.2133 -78.8517 96° East 465 535 23,300 -2,085 Descending Washington Center
Wed 11:40:59 AM 39.1964 -78.6983 98° East 450 518 21,300 -2,034 Descending Washington Center
Wed 11:41:59 AM 39.1797 -78.5369 98° East 435 501 19,300 -1,820 Descending Washington Center
Wed 11:43:01 AM 39.1642 -78.3944 98° East 409 471 17,600 -1,150 Descending Washington Center
Wed 11:43:59 AM 39.1381 -78.2597 104° East 397 457 17,000 -1,017 Descending Washington Center
Wed 11:44:59 AM 39.1056 -78.1275 108° East 385 443 15,600 -1,636 Descending Washington Center
Wed 11:46:00 AM 39.0708 -77.9978 109° East 385 443 13,700 -1,475 Descending Washington Center
Wed 11:47:01 AM 39.0397 -77.8792 109° East 370 426 12,600 -1,140 Descending Washington Center
Wed 11:48:01 AM 39.0125 -77.7689 108° East 336 387 11,400 -1,322 Descending Washington Center
Wed 11:48:59 AM 38.9853 -77.6586 108° East 326 375 10,000 -1,017 Descending Washington Center
Wed 11:49:59 AM 38.9494 -77.5561 114° Southeast 316 364 9,400 -950 Descending Washington Center
Wed 11:50:59 AM 38.9136 -77.4592 115° Southeast 305 351 8,100 -1,267 Descending Washington Center
Wed 11:51:29 AM 38.9000 -77.4167 112° Southeast 293 337 7,500 -1,429 Descending Potomac TRACON
Wed 11:52:23 AM 38.8500 -77.3167 123° Southeast 291 335 6,100 -789 Descending Potomac TRACON
Wed 11:53:23 AM 38.8167 -77.2333 117° Southeast 286 329 6,000 -99 Descending Potomac TRACON
Wed 11:54:24 AM 38.7833 -77.1500 117° Southeast 290 334 5,900 -793 Descending Potomac TRACON
Wed 11:55:24 AM 38.7167 -77.1167 159° South 283 326 4,400 -950 Descending Potomac TRACON
Wed 11:56:24 AM 38.6333 -77.1000 171° South 253 291 4,000 -300 Descending Potomac TRACON
Wed 11:57:24 AM 38.5667 -77.0833 169° South 262 302 3,800 -500 Descending Potomac TRACON
Wed 11:58:24 AM 38.5833 -77.0167 72° East 218 251 3,000 -700 Descending Potomac TRACON
Wed 11:59:24 AM 38.6333 -77.0167 360° North 172 198 2,400 -250 Descending Potomac TRACON
Wed 12:00:24 PM 38.6667 -77.0167 360° North 146 168 2,500 50 Climbing Potomac TRACON
Wed 12:01:24 PM 38.7167 -77.0167 360° North 140 161 2,500 -350 Level Potomac TRACON
Wed 12:02:24 PM 38.7500 -77.0333 339° North 149 171 1,800 -650 Descending Potomac TRACON
Wed 12:03:24 PM 38.7833 -77.0333 360° North 132 152 1,200 -700 Descending Potomac TRACON
Wed 12:04:24 PM 38.8167 -77.0333 360° North 127 146 400 -800 Descending Potomac TRACON

Login

Don't have an account? Register now (free) for customized features, flight alerts, and more!